QTR56 LFMN-OTHH

Flight info

Callsign QTR56
Flight time N/A
Altitude 35000
Route SODRI DCT RAPUR DCT RATAP DCT BTA DCT DOKAR DCT SUNEV DCT KONUT DCT NAXES DCT BELIX DCT SALUN N705 MMA DCT DASUM Y234 FYM M872 LUBOS/N0480F370 M872 BDB Y214 RAPMA/N0512F290 Y214 ASPUS Y432 LADBO T142 LAEEB
Aircraft B77L/H-SDE1E2E3FGHIJ2J3J4J5M1RWXY/LB1D1

Departure

Time 2026-04-30 20:43
Airport Nice-Côte d'Azur Airport (LFMN)

Arrival

Time N/A
Airport Hamad International Airport (OTHH)
Time Latitude Longitude Altitude Speed Heading
2026-04-30 20:18 43.66613 7.21655 25 ft 0 kts 269°
2026-04-30 20:34 43.66614 7.21683 30 ft 2 kts 269°
2026-04-30 20:34 43.66615 7.21736 30 ft 2 kts 268°
2026-04-30 20:35 43.66615 7.21751 30 ft 2 kts 268°
2026-04-30 20:35 43.66616 7.21773 30 ft 2 kts 265°
2026-04-30 20:35 43.66621 7.21818 31 ft 2 kts 240°
2026-04-30 20:36 43.66626 7.21829 31 ft 0 kts 229°
2026-04-30 20:37 43.66611 7.21805 30 ft 8 kts 228°
2026-04-30 20:37 43.66548 7.21735 31 ft 14 kts 221°
2026-04-30 20:38 43.66488 7.21641 31 ft 9 kts 227°
2026-04-30 20:38 43.66456 7.21596 28 ft 6 kts 226°
2026-04-30 20:38 43.66425 7.21551 28 ft 9 kts 226°
2026-04-30 20:39 43.66263 7.21316 28 ft 19 kts 223°
2026-04-30 20:39 43.66154 7.21168 29 ft 22 kts 225°
2026-04-30 20:39 43.66055 7.21031 30 ft 22 kts 222°
2026-04-30 20:40 43.65832 7.20856 28 ft 17 kts 168°
2026-04-30 20:40 43.65713 7.20887 29 ft 17 kts 169°
2026-04-30 20:40 43.65594 7.20915 28 ft 17 kts 171°
2026-04-30 20:41 43.65292 7.20882 30 ft 24 kts 224°
2026-04-30 20:41 43.65177 7.20718 28 ft 24 kts 226°
2026-04-30 20:41 43.65059 7.20553 31 ft 24 kts 224°
2026-04-30 20:41 43.64940 7.20393 32 ft 24 kts 224°
2026-04-30 20:42 43.64823 7.20234 28 ft 23 kts 225°
2026-04-30 20:42 43.64747 7.20187 28 ft 9 kts 166°
2026-04-30 20:42 43.64892 7.20548 28 ft 79 kts 45°
2026-04-30 20:43 43.65540 7.21402 47 ft 175 kts 41°
2026-04-30 20:43 43.66465 7.22695 924 ft 189 kts 47°
2026-04-30 20:43 43.67115 7.24210 2038 ft 185 kts 78°
2026-04-30 20:44 43.66027 7.27464 2961 ft 210 kts 139°
2026-04-30 20:44 43.64871 7.28734 3634 ft 214 kts 138°
2026-04-30 20:44 43.62506 7.31326 4988 ft 222 kts 139°
2026-04-30 20:45 43.60006 7.33852 6225 ft 231 kts 158°
2026-04-30 20:45 43.58385 7.34028 6741 ft 238 kts 185°
2026-04-30 20:45 43.56723 7.33732 7327 ft 242 kts 186°
2026-04-30 20:46 43.51655 7.33772 8781 ft 263 kts 144°
2026-04-30 20:46 43.50405 7.35660 9004 ft 276 kts 120°
2026-04-30 20:47 43.48309 7.40321 10225 ft 292 kts 120°
2026-04-30 20:47 43.47215 7.42729 10780 ft 304 kts 120°
2026-04-30 20:48 43.44778 7.47994 11180 ft 354 kts 121°
2026-04-30 20:48 43.43387 7.50944 11409 ft 378 kts 121°
2026-04-30 20:48 43.41936 7.53991 12226 ft 382 kts 122°
2026-04-30 20:48 43.40464 7.57057 13147 ft 386 kts 122°
2026-04-30 20:49 43.38976 7.60147 14088 ft 389 kts 122°
2026-04-30 20:49 43.37485 7.63235 15086 ft 385 kts 122°
2026-04-30 20:49 43.35989 7.66328 15790 ft 394 kts 122°
2026-04-30 20:50 43.32926 7.72654 17370 ft 402 kts 122°
2026-04-30 20:50 43.31352 7.75903 17891 ft 412 kts 122°
2026-04-30 20:50 43.29764 7.79173 18823 ft 409 kts 122°
2026-04-30 20:50 43.28174 7.82443 19403 ft 418 kts 122°
2026-04-30 20:51 43.26552 7.85774 20151 ft 417 kts 122°
2026-04-30 20:51 43.23265 7.92520 21234 ft 432 kts 122°
2026-04-30 20:51 43.21599 7.95931 22099 ft 429 kts 122°
2026-04-30 20:52 43.19924 7.99356 22595 ft 439 kts 122°
2026-04-30 20:52 43.18230 8.02818 23118 ft 444 kts 122°
2026-04-30 20:52 43.14781 8.09853 24286 ft 452 kts 122°
2026-04-30 20:53 43.13021 8.13438 24874 ft 453 kts 122°
2026-04-30 20:53 43.11252 8.17036 25268 ft 461 kts 122°
2026-04-30 20:53 43.09443 8.20711 25628 ft 468 kts 122°
2026-04-30 20:54 43.05779 8.28142 26586 ft 477 kts 123°
2026-04-30 20:54 43.03902 8.31941 26961 ft 483 kts 123°
2026-04-30 20:54 43.02014 8.35761 27389 ft 488 kts 123°
2026-04-30 20:55 42.98600 8.43876 28146 ft 498 kts 116°
2026-04-30 20:55 42.96982 8.48089 28509 ft 503 kts 116°
2026-04-30 20:55 42.95342 8.52341 28861 ft 508 kts 117°
2026-04-30 20:56 42.92005 8.60861 29622 ft 515 kts 117°
2026-04-30 20:56 42.90301 8.65173 29985 ft 518 kts 117°
2026-04-30 20:56 42.86861 8.73856 30737 ft 521 kts 117°
2026-04-30 20:57 42.85136 8.78205 31160 ft 520 kts 117°
2026-04-30 20:57 42.83414 8.82542 31571 ft 520 kts 117°
2026-04-30 20:57 42.81691 8.86878 31953 ft 521 kts 118°
2026-04-30 20:58 42.78234 8.95556 32723 ft 521 kts 118°
2026-04-30 20:58 42.76504 8.99891 33102 ft 521 kts 118°
2026-04-30 20:58 42.74771 9.04229 33482 ft 521 kts 118°
2026-04-30 20:58 42.73037 9.08559 33842 ft 521 kts 118°
2026-04-30 20:59 42.69586 9.17176 34498 ft 522 kts 118°
2026-04-30 20:59 42.67849 9.21514 34792 ft 522 kts 118°
2026-04-30 21:00 42.64366 9.30204 35157 ft 527 kts 118°
2026-04-30 21:00 42.60850 9.38950 35214 ft 527 kts 118°
2026-04-30 21:01 42.56032 9.52211 35213 ft 520 kts 108°
2026-04-30 21:02 42.52477 9.66099 35212 ft 520 kts 109°
2026-04-30 21:02 42.50079 9.75354 35217 ft 521 kts 105°
2026-04-30 21:03 42.48099 9.84771 35221 ft 521 kts 110°
2026-04-30 21:03 42.44839 9.93473 35199 ft 524 kts 125°
2026-04-30 21:04 42.40532 10.01455 35191 ft 526 kts 127°
2026-04-30 21:04 42.33966 10.13389 35192 ft 528 kts 127°
2026-04-30 21:05 42.29613 10.21422 35194 ft 529 kts 127°
2026-04-30 21:05 42.25273 10.29460 35199 ft 530 kts 127°
2026-04-30 21:06 42.20919 10.37500 35193 ft 531 kts 127°
2026-04-30 21:06 42.16583 10.45478 35195 ft 531 kts 127°
2026-04-30 21:07 42.12206 10.53506 35192 ft 532 kts 127°
2026-04-30 21:07 42.07822 10.61525 35185 ft 532 kts 127°
2026-04-30 21:08 42.03424 10.69548 35184 ft 533 kts 127°
2026-04-30 21:08 41.99015 10.77571 35186 ft 533 kts 127°
2026-04-30 21:09 41.94596 10.85590 35187 ft 534 kts 128°
2026-04-30 21:09 41.90166 10.93609 35186 ft 534 kts 128°
2026-04-30 21:10 41.85732 11.01614 35180 ft 535 kts 128°
2026-04-30 21:10 41.81289 11.09614 35181 ft 535 kts 128°
2026-04-30 21:11 41.76833 11.17616 35174 ft 535 kts 128°
2026-04-30 21:11 41.72370 11.25609 35164 ft 536 kts 128°
2026-04-30 21:12 41.67932 11.33537 35163 ft 537 kts 128°
2026-04-30 21:12 41.63444 11.41533 35162 ft 537 kts 128°
2026-04-30 21:13 41.58948 11.49522 35161 ft 538 kts 128°
2026-04-30 21:13 41.54438 11.57516 35158 ft 539 kts 128°
2026-04-30 21:14 41.49913 11.65515 35158 ft 540 kts 128°
2026-04-30 21:14 41.45382 11.73504 35151 ft 540 kts 129°
2026-04-30 21:15 41.40840 11.81492 35149 ft 541 kts 129°
2026-04-30 21:15 41.36284 11.89484 35155 ft 541 kts 129°
2026-04-30 21:16 41.31725 11.97463 35154 ft 542 kts 129°
2026-04-30 21:16 41.27165 12.05467 35156 ft 542 kts 128°
2026-04-30 21:17 41.22686 12.13543 35155 ft 543 kts 128°
2026-04-30 21:17 41.18220 12.21636 35163 ft 544 kts 128°
2026-04-30 21:18 41.13755 12.29677 35166 ft 544 kts 128°
2026-04-30 21:18 41.09249 12.37743 35165 ft 545 kts 128°
2026-04-30 21:19 41.04725 12.45814 35167 ft 545 kts 128°
2026-04-30 21:19 41.00202 12.53866 35169 ft 546 kts 128°
2026-04-30 21:20 40.95657 12.61935 35168 ft 546 kts 129°
2026-04-30 21:20 40.91108 12.69994 35171 ft 547 kts 129°
2026-04-30 21:21 40.87322 12.76683 35173 ft 547 kts 129°
2026-04-30 21:22 40.80466 12.88761 35172 ft 548 kts 129°
2026-04-30 21:23 40.71296 13.04841 35166 ft 549 kts 129°
2026-04-30 21:23 40.64397 13.16885 35170 ft 549 kts 129°
2026-04-30 21:24 40.59782 13.24915 35166 ft 550 kts 129°
2026-04-30 21:24 40.55158 13.32939 35167 ft 550 kts 129°
2026-04-30 21:25 40.48241 13.44906 35170 ft 551 kts 129°
2026-04-30 21:26 40.41270 13.56919 35164 ft 552 kts 130°
2026-04-30 21:27 40.34271 13.68934 35158 ft 552 kts 130°
2026-04-30 21:27 40.29593 13.76939 35156 ft 553 kts 130°
2026-04-30 21:28 40.22563 13.88930 35150 ft 554 kts 130°
2026-04-30 21:29 40.15532 14.00878 35146 ft 555 kts 130°
2026-04-30 21:30 40.03735 14.20824 35135 ft 555 kts 130°
2026-04-30 21:31 39.91932 14.40656 35136 ft 556 kts 130°
2026-04-30 21:32 39.84794 14.52582 35133 ft 556 kts 131°
2026-04-30 21:32 39.80026 14.60512 35135 ft 556 kts 131°
2026-04-30 21:33 39.72866 14.72391 35126 ft 557 kts 131°
2026-04-30 21:34 39.68080 14.80310 35122 ft 557 kts 131°
2026-04-30 21:34 39.60896 14.92159 35122 ft 557 kts 131°
2026-04-30 21:35 39.56127 14.99999 35132 ft 557 kts 131°
2026-04-30 21:35 39.51323 15.07879 35113 ft 557 kts 131°
2026-04-30 21:36 39.46512 15.15749 35108 ft 557 kts 131°
2026-04-30 21:37 39.36875 15.31457 35117 ft 557 kts 131°
2026-04-30 21:37 39.32056 15.39282 35118 ft 557 kts 131°
2026-04-30 21:38 39.27258 15.47055 35115 ft 556 kts 131°
2026-04-30 21:38 39.22431 15.54855 35119 ft 556 kts 132°
2026-04-30 21:39 39.17593 15.62653 35118 ft 556 kts 132°
2026-04-30 21:39 39.12763 15.70420 35113 ft 555 kts 132°
2026-04-30 21:40 39.07924 15.78182 35117 ft 555 kts 132°
2026-04-30 21:40 39.03088 15.85920 35118 ft 555 kts 132°
2026-04-30 21:41 38.98247 15.93649 35113 ft 554 kts 132°
2026-04-30 21:41 38.93405 16.01359 35106 ft 554 kts 132°
2026-04-30 21:42 38.88591 16.09007 35105 ft 554 kts 132°
2026-04-30 21:42 38.83742 16.16693 35103 ft 554 kts 132°
2026-04-30 21:43 38.78894 16.24357 35112 ft 553 kts 132°
2026-04-30 21:43 38.74026 16.32034 35115 ft 554 kts 133°
2026-04-30 21:44 38.69172 16.39674 35119 ft 553 kts 133°
2026-04-30 21:44 38.64314 16.47299 35124 ft 552 kts 133°
2026-04-30 21:45 38.59490 16.54854 35138 ft 551 kts 133°
2026-04-30 21:45 38.54636 16.62438 35139 ft 551 kts 133°
2026-04-30 21:46 38.49748 16.70056 35135 ft 551 kts 133°
2026-04-30 21:46 38.44916 16.77570 35137 ft 551 kts 133°
2026-04-30 21:47 38.40048 16.85123 35133 ft 551 kts 133°
2026-04-30 21:47 38.35174 16.92666 35129 ft 551 kts 133°
2026-04-30 21:48 38.30295 17.00199 35128 ft 551 kts 133°
2026-04-30 21:48 38.25407 17.07730 35125 ft 551 kts 133°
2026-04-30 21:49 38.20545 17.15202 35124 ft 551 kts 133°
2026-04-30 21:49 38.15644 17.22717 35119 ft 552 kts 133°
2026-04-30 21:50 38.10733 17.30231 35120 ft 552 kts 133°
2026-04-30 21:50 38.05856 17.37676 35120 ft 552 kts 133°
2026-04-30 21:51 38.00942 17.45159 35113 ft 551 kts 133°
2026-04-30 21:51 37.96019 17.52639 35115 ft 551 kts 133°
2026-04-30 21:52 37.91106 17.60087 35110 ft 550 kts 133°
2026-04-30 21:52 37.86195 17.67513 35103 ft 550 kts 133°
2026-04-30 21:53 37.81287 17.74920 35105 ft 549 kts 133°
2026-04-30 21:53 37.76372 17.82319 35106 ft 548 kts 133°
2026-04-30 21:54 37.71493 17.89649 35101 ft 548 kts 133°
2026-04-30 21:54 37.66580 17.97011 35098 ft 547 kts 133°
2026-04-30 21:55 37.61672 18.04349 35100 ft 547 kts 133°
2026-04-30 21:55 37.56764 18.11673 35100 ft 546 kts 133°
2026-04-30 21:56 37.51851 18.18986 35097 ft 546 kts 133°
2026-04-30 21:56 37.46956 18.26257 35097 ft 546 kts 133°
2026-04-30 21:57 37.42005 18.33595 35095 ft 546 kts 133°
2026-04-30 21:57 37.37115 18.40827 35093 ft 546 kts 133°
2026-04-30 21:58 37.32176 18.48114 35089 ft 546 kts 133°
2026-04-30 21:58 37.27239 18.55382 35088 ft 546 kts 133°
2026-04-30 21:59 37.22328 18.62597 35088 ft 546 kts 133°
2026-04-30 22:00 37.14907 18.73470 35077 ft 546 kts 133°
2026-04-30 22:00 37.07478 18.84319 35075 ft 546 kts 133°
2026-04-30 22:01 37.02528 18.91530 35079 ft 546 kts 133°
2026-04-30 22:01 36.97590 18.98744 35078 ft 546 kts 131°
2026-04-30 22:02 36.93242 19.06569 35080 ft 548 kts 123°
2026-04-30 22:02 36.89260 19.14615 35080 ft 548 kts 123°
2026-04-30 22:03 36.85237 19.22710 35073 ft 548 kts 123°
2026-04-30 22:03 36.81169 19.30778 35073 ft 548 kts 123°
2026-04-30 22:04 36.77089 19.38807 35070 ft 547 kts 123°
2026-04-30 22:05 36.70973 19.50806 35065 ft 546 kts 123°
2026-04-30 22:05 36.66893 19.58794 35061 ft 546 kts 123°
2026-04-30 22:06 36.62815 19.66764 35064 ft 545 kts 123°
2026-04-30 22:06 36.56719 19.78639 35054 ft 544 kts 123°
2026-04-30 22:07 36.52639 19.86565 35058 ft 544 kts 123°
2026-04-30 22:07 36.48551 19.94487 35061 ft 544 kts 123°
2026-04-30 22:08 36.44464 20.02388 35060 ft 544 kts 123°
2026-04-30 22:08 36.40367 20.10290 35053 ft 544 kts 123°
2026-04-30 22:09 36.36266 20.18181 35049 ft 544 kts 124°
2026-04-30 22:09 36.32856 20.24730 35051 ft 544 kts 124°
2026-04-30 22:10 36.28751 20.32596 35052 ft 543 kts 124°
2026-04-30 22:10 36.24634 20.40466 35049 ft 544 kts 124°
2026-04-30 22:11 36.18457 20.52242 35050 ft 544 kts 124°
2026-04-30 22:12 36.14355 20.60039 35050 ft 543 kts 124°
2026-04-30 22:12 36.10221 20.67879 35046 ft 543 kts 124°
2026-04-30 22:13 36.06089 20.75698 35048 ft 543 kts 124°
2026-04-30 22:13 36.01950 20.83511 35048 ft 543 kts 124°
2026-04-30 22:14 35.97809 20.91313 35044 ft 543 kts 124°
2026-04-30 22:14 35.93662 20.99105 35042 ft 543 kts 124°
2026-04-30 22:15 35.89541 21.06833 35039 ft 543 kts 124°
2026-04-30 22:15 35.85382 21.14613 35037 ft 543 kts 124°
2026-04-30 22:16 35.81219 21.22384 35032 ft 543 kts 124°
2026-04-30 22:17 35.72888 21.37883 35034 ft 543 kts 124°
2026-04-30 22:17 35.66634 21.49474 35031 ft 543 kts 124°
2026-04-30 22:18 35.60352 21.61075 35034 ft 544 kts 124°
2026-04-30 22:19 35.54051 21.72675 35033 ft 544 kts 124°
2026-04-30 22:20 35.47736 21.84260 35029 ft 544 kts 124°
2026-04-30 22:20 35.41408 21.95831 35028 ft 544 kts 124°
2026-04-30 22:21 35.37208 22.03491 35029 ft 545 kts 125°
2026-04-30 22:21 35.32976 22.11192 35027 ft 545 kts 125°
2026-04-30 22:22 35.28738 22.18885 35034 ft 545 kts 125°
2026-04-30 22:22 35.24494 22.26574 35026 ft 545 kts 125°
2026-04-30 22:23 35.20246 22.34252 35026 ft 545 kts 125°
2026-04-30 22:23 35.15993 22.41924 35028 ft 545 kts 125°
2026-04-30 22:24 35.11736 22.49585 35029 ft 545 kts 125°
2026-04-30 22:24 35.07469 22.57248 35022 ft 545 kts 125°
2026-04-30 22:25 35.03233 22.64839 35022 ft 545 kts 125°
2026-04-30 22:25 34.98955 22.72487 35020 ft 545 kts 125°
2026-04-30 22:26 34.92538 22.83931 35025 ft 545 kts 125°
2026-04-30 22:27 34.88275 22.91512 35024 ft 545 kts 126°
2026-04-30 22:27 34.81838 23.02929 35021 ft 545 kts 126°
2026-04-30 22:28 34.75388 23.14334 35026 ft 545 kts 126°
2026-04-30 22:29 34.66768 23.29517 35015 ft 545 kts 126°
2026-04-30 22:31 34.51673 23.55950 35023 ft 545 kts 126°
2026-04-30 22:32 34.40850 23.74783 35017 ft 544 kts 127°
2026-04-30 22:33 34.29999 23.93567 35017 ft 544 kts 127°
2026-04-30 22:35 34.19140 24.12267 35016 ft 544 kts 127°
2026-04-30 22:36 34.08220 24.30976 35018 ft 545 kts 127°
2026-04-30 22:37 33.99258 24.45625 35031 ft 542 kts 135°
2026-04-30 22:38 33.88177 24.57779 35017 ft 539 kts 143°
2026-04-30 22:39 33.79741 24.66748 35015 ft 540 kts 142°
2026-04-30 22:40 33.62914 24.84746 35012 ft 541 kts 142°
2026-04-30 22:41 33.48810 24.99743 35016 ft 543 kts 142°
2026-04-30 22:43 33.31837 25.17700 35015 ft 542 kts 142°
2026-04-30 22:44 33.20551 25.29588 35016 ft 542 kts 142°
2026-04-30 22:45 33.03581 25.47382 35012 ft 541 kts 143°
2026-04-30 22:47 32.86614 25.65077 35017 ft 540 kts 143°
2026-04-30 22:48 32.75295 25.76832 35017 ft 540 kts 143°
2026-04-30 22:49 32.58320 25.94381 35027 ft 540 kts 143°
2026-04-30 22:51 32.41276 26.11911 35015 ft 541 kts 143°
2026-04-30 22:52 32.32777 26.20618 35012 ft 541 kts 143°
2026-04-30 22:53 32.21394 26.32244 35013 ft 541 kts 143°
2026-04-30 22:53 32.12842 26.40952 35008 ft 541 kts 143°
2026-04-30 22:55 31.98577 26.55429 35016 ft 541 kts 143°
2026-04-30 22:56 31.87140 26.66991 35013 ft 542 kts 143°
2026-04-30 22:57 31.72852 26.81381 35022 ft 542 kts 143°
2026-04-30 22:58 31.61386 26.92886 35025 ft 542 kts 143°
2026-04-30 22:59 31.44223 27.10035 35042 ft 541 kts 143°